(355482) = 2003 YC59 = 2007 WS5

Discovered at Socorro on 2007-11-17 by LINEAR.

Orbit

Orbit type: Main Belt

Note: WebGL enabled browser required.

epoch2023-09-13.0
epoch JD2460200.5
perihelion date2020-08-27.94411
perihelion JD2459089.44411
argument of perihelion (°)164.64738
ascending node (°)259.12579
inclination (°)13.95646
eccentricity0.0261696
perihelion distance (AU)2.5450027
Tisserand w.r.t. Jupiter3.4
ΔV w.r.t. Earth (km/sec)10.9
semimajor axis (AU)2.6133942
mean anomaly (°)259.19843
mean daily motion (°/day)0.23329020
aphelion distance (AU)2.682
period (years)4.22
P-vector [x]0.43425052
P-vector [y]0.79898111
P-vector [z]0.41599960
Q-vector [x]-0.86909538
Q-vector [y]0.49304607
Q-vector [z]-0.03973412
absolute magnitude16.31
phase slope0.15
uncertainty0
referenceMPO 779538
observations used441
oppositions13
arc length (days)7683
first opposition used2002
last opposition used2023
residual rms (arc-secs)0.63
perturbers coarse indicatorM-v
perturbers precise indicator003Ek
first observation date used2002-10-31.0
last observation date used2023-11-13.0
computer nameMPCLINUX
JD of orbit computation2456909.320807
perihelion JD uncertainty (days)7.2647E-04
argument of perihelion uncertainty (°)1.6193E-04
ascending node uncertainty (°)1.7412E-05
inclination uncertainty (°)7.5484E-06
eccentricity uncertainty 9.0933E-08
perihelion distance uncertainty (AU)2.1488E-07
Minimum Orbit Intersection Distances (in AU)
for orbit epoch: 2460200.5, reference: E2023-VO2
Mercury2.21352
Venus1.8254
Earth1.55989
Mars0.98813
Jupiter2.49502
Saturn6.50206
Uranus15.9178
Neptune27.3424

Observations

448 total observations over interval: 2002 10 31.085000 – 2023 11 13.131805
These data are available for download (format description).

Date (UT) J2000 RA J2000 Dec Magn Location Ref
2002 10 31.085000 21 11 45.700 +01 03 42.61 21.18 V 645 – Apache Point-Sloan Digital Sky Survey MPS 233486
2002 10 31.088472 21 11 45.842 +01 03 42.04 22.11   645 – Apache Point-Sloan Digital Sky Survey MPS 233486
2003 12 19.28003 05 23 15.67 +21 29 42.8 19.7   704 – Lincoln Laboratory ETS, New Mexico MPS 94937
2003 12 19.29332 05 23 14.71 +21 29 37.6 19.5   704 – Lincoln Laboratory ETS, New Mexico MPS 94937
2003 12 19.30655 05 23 13.96 +21 29 32.6 19.7   704 – Lincoln Laboratory ETS, New Mexico MPS 94937
2003 12 19.31986 05 23 13.04 +21 29 26.8 20.2   704 – Lincoln Laboratory ETS, New Mexico MPS 94937
2003 12 21.28900 05 21 10.95 +21 16 34.3 19.8   704 – Lincoln Laboratory ETS, New Mexico MPS 94937
2003 12 21.30227 05 21 10.10 +21 16 29.1 19.5   704 – Lincoln Laboratory ETS, New Mexico MPS 94937
2003 12 21.31545 05 21 09.34 +21 16 23.1 19.9   704 – Lincoln Laboratory ETS, New Mexico MPS 94937
2007 11 08.33779 03 37 47.85 +29 32 29.7 19.4 V 703 – Catalina Sky Survey MPS 229267
2007 11 08.34460 03 37 47.42 +29 32 26.8 19.7 V 703 – Catalina Sky Survey MPS 229267
2007 11 08.35125 03 37 47.10 +29 32 22.6 19.4 V 703 – Catalina Sky Survey MPS 229267
2007 11 08.35789 03 37 46.56 +29 32 21.3 19.5 V 703 – Catalina Sky Survey MPS 229267
2007 11 15.16832 03 31 07.33 +28 39 21.3 19.1 r 699 – Lowell Observatory-LONEOS MPS 229267
2007 11 15.19124 03 31 06.00 +28 39 10.6 19.8 r 699 – Lowell Observatory-LONEOS MPS 229267
2007 11 15.21420 03 31 04.60 +28 38 58.7 19.9 r 699 – Lowell Observatory-LONEOS MPS 229267
2007 11 15.23712 03 31 03.23 +28 38 47.3 19.7 r 699 – Lowell Observatory-LONEOS MPS 229267
2007 11 17.25842 03 29 02.77 +28 21 37.5 19.5   704 – Lincoln Laboratory ETS, New Mexico MPS 229267
2007 11 17.27112 03 29 02.04 +28 21 31.4 19.8   704 – Lincoln Laboratory ETS, New Mexico MPS 229267
2007 11 17.28383 03 29 01.20 +28 21 24.9 19.8   704 – Lincoln Laboratory ETS, New Mexico MPS 229267
2007 11 17.29655 03 29 00.43 +28 21 18.8 19.7   704 – Lincoln Laboratory ETS, New Mexico MPS 229267
2007 11 17.30929 03 28 59.63 +28 21 11.2 19.8   704 – Lincoln Laboratory ETS, New Mexico MPS 229267
2007 11 20.13243 03 26 12.99 +27 56 16.0 19.2   704 – Lincoln Laboratory ETS, New Mexico MPS 229267
2007 11 20.14490 03 26 12.24 +27 56 10.0 19.3   704 – Lincoln Laboratory ETS, New Mexico MPS 229267
2007 11 20.15736 03 26 11.44 +27 56 03.2 19.7   704 – Lincoln Laboratory ETS, New Mexico MPS 229267
2007 11 20.16984 03 26 10.78 +27 55 55.7 20.0   704 – Lincoln Laboratory ETS, New Mexico MPS 229267
2007 11 20.17987 03 26 10.14 +27 55 50.7 19.3 V G96 – Mt. Lemmon Survey MPS 229267
2007 11 20.18263 03 26 09.99 +27 55 49.5 20.2   704 – Lincoln Laboratory ETS, New Mexico MPS 229267
2007 11 20.18424 03 26 09.88 +27 55 48.3 19.3 V G96 – Mt. Lemmon Survey MPS 229267
2007 11 20.18866 03 26 09.63 +27 55 46.1 19.3 V G96 – Mt. Lemmon Survey MPS 229267
2007 11 20.19315 03 26 09.34 +27 55 43.8 19.2 V G96 – Mt. Lemmon Survey MPS 229267
2007 12 12.21411 03 08 06.58 +24 26 04.4 20.5   704 – Lincoln Laboratory ETS, New Mexico MPS 230948
2007 12 12.22703 03 08 06.05 +24 25 59.2 20.0   704 – Lincoln Laboratory ETS, New Mexico MPS 230948
2007 12 12.23996 03 08 05.64 +24 25 52.7 20.1   704 – Lincoln Laboratory ETS, New Mexico MPS 230948
2007 12 12.25289 03 08 05.18 +24 25 44.9 20.3   704 – Lincoln Laboratory ETS, New Mexico MPS 230948
2007 12 13.19621 03 07 33.36 +24 17 01.5 20.0   704 – Lincoln Laboratory ETS, New Mexico MPS 230948
2007 12 13.20912 03 07 32.78 +24 16 52.6 19.7   704 – Lincoln Laboratory ETS, New Mexico MPS 230948
2007 12 13.22200 03 07 32.46 +24 16 46.8 19.9   704 – Lincoln Laboratory ETS, New Mexico MPS 230948
2007 12 13.23492 03 07 32.01 +24 16 39.3 20.4   704 – Lincoln Laboratory ETS, New Mexico MPS 230948
2007 12 13.24781 03 07 31.41 +24 16 31.4 20.2   704 – Lincoln Laboratory ETS, New Mexico MPS 230948
2007 12 14.07160 03 07 05.03 +24 08 56.8 19.8 V 691 – Steward Observatory, Kitt Peak-Spacewatch MPS 230948
2007 12 14.08495 03 07 04.61 +24 08 50.2 20.1 V 691 – Steward Observatory, Kitt Peak-Spacewatch MPS 230948
2007 12 14.09830 03 07 04.17 +24 08 42.4 20.1 V 691 – Steward Observatory, Kitt Peak-Spacewatch MPS 230948
2007 12 15.19554 03 06 30.23 +23 58 45.2 20.1   704 – Lincoln Laboratory ETS, New Mexico MPS 231366
2007 12 15.20836 03 06 29.83 +23 58 38.9 20.1   704 – Lincoln Laboratory ETS, New Mexico MPS 231366
2007 12 15.23395 03 06 29.01 +23 58 22.5 20.7   704 – Lincoln Laboratory ETS, New Mexico MPS 231366
2007 12 15.24674 03 06 28.61 +23 58 16.7 20.3   704 – Lincoln Laboratory ETS, New Mexico MPS 231366
2007 12 16.08055 03 06 04.75 +23 50 47.3 20.0 V 691 – Steward Observatory, Kitt Peak-Spacewatch MPS 231366
2007 12 16.09736 03 06 04.25 +23 50 38.7 19.9 V 691 – Steward Observatory, Kitt Peak-Spacewatch MPS 231366
2007 12 16.11761 03 06 03.64 +23 50 27.8 19.9 V 691 – Steward Observatory, Kitt Peak-Spacewatch MPS 231366
2007 12 18.07493 03 05 11.88 +23 33 12.6 20.0 V 691 – Steward Observatory, Kitt Peak-Spacewatch MPS 231862
2007 12 18.09520 03 05 11.32 +23 33 01.9 20.0 V 691 – Steward Observatory, Kitt Peak-Spacewatch MPS 231862
2007 12 18.10857 03 05 10.97 +23 32 55.0 20.0 V 691 – Steward Observatory, Kitt Peak-Spacewatch MPS 231862
2008 02 10.16167 03 23 34.40 +19 27 28.8 20.9 V G96 – Mt. Lemmon Survey MPS 237656
2008 02 10.16825 03 23 34.80 +19 27 28.0 20.9 V G96 – Mt. Lemmon Survey MPS 237656
2008 02 10.17491 03 23 35.23 +19 27 28.1 21.1 V G96 – Mt. Lemmon Survey MPS 237656
2008 02 10.18147 03 23 35.59 +19 27 27.9 20.7 V G96 – Mt. Lemmon Survey MPS 237656
2008 02 28.13251 03 43 37.95 +19 26 09.3 20.9 V G96 – Mt. Lemmon Survey MPS 239558
2008 02 28.13976 03 43 38.46 +19 26 08.9 20.6 V G96 – Mt. Lemmon Survey MPS 239558
2008 02 28.14700 03 43 39.00 +19 26 09.6 21.4 V G96 – Mt. Lemmon Survey MPS 239558
2008 02 28.15423 03 43 39.54 +19 26 09.5 21.4 V G96 – Mt. Lemmon Survey MPS 239558
2011 09 24.42830 01 48 12.56 +30 10 30.4 20.3 V 703 – Catalina Sky Survey MPS 392725
2011 09 24.43615 01 48 12.27 +30 10 31.8 19.8 V 703 – Catalina Sky Survey MPS 392725
2011 09 24.44406 01 48 11.98 +30 10 30.9 21.0 V 703 – Catalina Sky Survey MPS 392725
2011 09 24.45186 01 48 11.70 +30 10 30.2 20.1 V 703 – Catalina Sky Survey MPS 392725
2011 10 01.09200 01 43 49.21 +29 55 20.8 19.7 R 461 – University of Szeged, Piszkesteto Stn. (Konkol MPS 394258
2011 10 01.10278 01 43 48.72 +29 55 18.7 19.5 R 461 – University of Szeged, Piszkesteto Stn. (Konkol MPS 394258
2011 10 01.11356 01 43 48.24 +29 55 16.6 19.4 R 461 – University of Szeged, Piszkesteto Stn. (Konkol MPS 394258
2013 01 23.49467 09 39 12.528 -05 47 25.73 19.9 r F51 – Pan-STARRS 1, Haleakala MPS 452323
2013 01 23.50657 09 39 11.927 -05 47 27.15 19.8 r F51 – Pan-STARRS 1, Haleakala MPS 452323
2013 02 03.47553 09 29 31.366 -05 58 15.24 19.5 i F51 – Pan-STARRS 1, Haleakala MPS 453744
2013 02 03.48828 09 29 30.625 -05 58 14.97 19.5 i F51 – Pan-STARRS 1, Haleakala MPS 453744
2013 02 10.18335 09 23 09.03 -05 51 01.4 19.4 R 926 – Tenagra II Observatory, Nogales MPS 453744
2013 02 10.19719 09 23 08.22 -05 51 00.0 19.5 R 926 – Tenagra II Observatory, Nogales MPS 453744
2013 02 10.21338 09 23 07.28 -05 50 57.6 19.7 R 926 – Tenagra II Observatory, Nogales MPS 453744
2013 03 03.24545 09 05 05.28 -04 33 44.6 19.7 V 703 – Catalina Sky Survey MPS 459239
2013 03 03.25111 09 05 05.13 -04 33 44.4 19.9 V 703 – Catalina Sky Survey MPS 459239
2013 03 03.25673 09 05 04.81 -04 33 41.7 19.8 V 703 – Catalina Sky Survey MPS 459239
2013 03 03.26235 09 05 04.56 -04 33 40.6 20.2 V 703 – Catalina Sky Survey MPS 459239
2014 06 18.38352 16 29 00.304 -23 09 00.97 19.6 i F51 – Pan-STARRS 1, Haleakala MPS 519964
2014 06 18.38419 16 29 00.274 -23 09 00.65 19.6 i F51 – Pan-STARRS 1, Haleakala MPS 519964
2014 06 18.39612 16 28 59.647 -23 08 55.37 19.6 i F51 – Pan-STARRS 1, Haleakala MPS 519964
2014 06 18.39678 16 28 59.608 -23 08 55.34 19.7 i F51 – Pan-STARRS 1, Haleakala MPS 519964
2014 06 18.40870 16 28 58.985 -23 08 50.11 19.6 i F51 – Pan-STARRS 1, Haleakala MPS 519964
2014 06 18.40936 16 28 58.942 -23 08 49.81 19.7 i F51 – Pan-STARRS 1, Haleakala MPS 519964
2014 06 18.42127 16 28 58.320 -23 08 44.82 19.7 i F51 – Pan-STARRS 1, Haleakala MPS 519964
